View from above orbital plane
|
View from above satellite
|
Ground track
|
The orbit data is extracted from the following two-line orbital elements,
1 18422U 87088B 21018.77479208 .00000064 00000-0 48894-5 0 9992
2 18422 82.5107 27.7383 0021124 79.6182 92.9655 14.83057969775114
Epoch (UTC): | 18 January 2021 18:35:42 |
Eccentricity: | 0.0021124 |
inclination: | 82.5107° |
perigee height: | 605 km |
apogee height: | 634 km |
right ascension of ascending node: | 27.7383° |
argument of perigee: | 79.6182° |
revolutions per day: | 14.83057969 |
mean anomaly at epoch: | 92.9655° |
orbit number at epoch: | 77511 |
The dashed part of the orbit path shows where the satellite is in the earth's shadow,
|
|